Regional Weather Roundup
Issued by NWS Jackson, KY

Home | Current Version | Previous Version | Text Only | Print | Product List | Glossary Off
Versions: 1 2 3 4 5 6 7 8 9 10 11 12 13 14 15 16 17 18 19 20 21 22 23 24 25 26 27 28 29 30 31 32 33 34 35 36 37 38 39 40 41 42 43 44 45 46 47 48 49

000
ASUS43 KJKL 281010
RWRJKL

EAST KENTUCKY HOURLY WEATHER ROUNDUP
NATIONAL WEATHER SERVICE JACKSON KY
600 AM EDT TUE JUL 28 2015

NOTE: "FAIR" INDICATES FEW OR NO CLOUDS BELOW 12,000 FEET WITH
NO SIGNIFICANT WEATHER AND/OR OBSTRUCTIONS TO VISIBILITY.

* THESE REPORTS ARE NOT UNDER NWS QUALITY CONTROL AND MAY NOT
  REPORT WEATHER SUCH AS PRECIPITATION AND FOG.

KYZ079-080-083-085-087-088-110-112-115-119-120-281100
...EASTERN KENTUCKY...

CITY           SKY/WX    TMP DP  RH WIND       PRES   REMARKS
JACKSON        FOG       71  70  96 CALM      30.02S VSB 1/4
LONDON         MOCLDY    71  67  87 CALM      30.01S FOG
SOMERSET*      PTCLDY    70  70 100 CALM      30.01S FOG
MONTICELLO*    FOG       72  72 100 CALM      30.02S VSB 3/4
WILLIAMSBURG*    N/A     68  68 100 CALM      30.01S
MIDDLESBORO*   FOG       70  70 100 CALM      30.03S VSB 3/4
HAZARD APT*    FOG       72  72 100 CALM      30.03R VSB 1/4
BLACK MTN*       N/A     68  66  94 S3          N/A
PIKEVILLE APT* FOG       72  72 100 CALM      30.04R VSB 0
BIG SANDY*     PTSUNNY   70  70  99 CALM      30.02R FOG
MOREHEAD APT*  MOSUNNY   70  68  94 S3        30.02R FOG
$$

KYZ035-036-041-042-044-050-067-078-099-281100
...CENTRAL KENTUCKY...

CITY           SKY/WX    TMP DP  RH WIND       PRES   REMARKS
MT STERLING*   PTCLDY    70  70 100 CALM      30.02R
FLEMING/MASON* FOG       70  70 100 CALM      30.00S VSB 1/2
DANVILLE*      PTCLDY    70  70 100 CALM      30.00F FOG
RICHMOND*      PTCLDY    72  70  94 CALM      29.99S
LEXINGTON      PTCLDY    72  70  93 CALM      29.99S
FRANKFORT      MOCLDY    71  69  93 CALM      29.97S
$$

KYZ091>093-OHZ055-061-077-WVZ005-015-034-035-042-281100
...SOUTHERN OHIO/WEST VIRGINIA...

CITY           SKY/WX    TMP DP  RH WIND       PRES   REMARKS
COVINGTON      PTCLDY    73  71  93 CALM      29.99R FOG
COLUMBUS       PTCLDY    70  64  81 NE5       30.00R
DAYTON         MOCLDY    69  66  90 NE6       30.02R
WILMINGTON     CLOUDY    70  68  93 E3        30.00S FOG
HUNTINGTON     FOG       70  70 100 S3        29.99R VSB 1/4
CHARLESTON     MOCLDY    70  68  93 CALM      30.00R FOG
PINEVILLE*     MOCLDY    69  69 100 MISG      30.10S FOG
BECKLEY        CLOUDY    69  67  93 S3        30.08S
BLUEFIELD      PTCLDY    70  66  87 CALM      30.11S FOG
$$

VAZ002-007-008-TNZ017-027-036-066-071-281100
...SOUTHWEST VIRGINIA/EAST TENNESSEE...

CITY           SKY/WX    TMP DP  RH WIND       PRES   REMARKS
WISE*          MOCLDY    72  72 100 CALM      30.11R
ABINGDON*      CLOUDY    72  70  93 CALM      30.08R
BRISTOL        MOCLDY    72  70  93 CALM      30.04S FOG
KNOXVILLE      MOCLDY    74  72  93 N3        30.00R
OAK RIDGE      PTCLDY    74  71  91 CALM      30.02R
CROSSVILLE     MOCLDY    72  69  90 CALM      30.05S FOG
NASHVILLE      MOCLDY    78  76  93 CALM      29.98R
$$

...KEY TO REMARKS...
VSB - VISIBILITY IN MILES
WCI - WIND CHILL INDEX
HX  - HEAT INDEX

$$


USA.gov is the U.S. government's official web portal to all federal, state and local government web resources and services.